Dewpoint
38 40 38 41 42 39 43 40 37 41 54 54 53 54 54 59 58 59 57 55 57 57 58 58 58 60 62 64 64 65 67 69 70 69 70 70 67 68 70 71 72 72 73 73
35 34 37 40 40 39 39 37 37 50 54 51 48 48 50 56 58 58 57 55 55 55 56 57 57 58 61 63 64 66 67 70 70 69 70 70 70 70 70 71 72 72 70 71
33 34 38 38 38 38 37 36 37 37 52 51 49 45 51 55 58 60 58 57 55 55 55 56 57 58 59 62 64 65 68 69 70 69 70 71 71 70 69 70 70 70 73 71
26 31 36 37 36 37 36 37 36 44 41 32 48 35 44 50 56 58 59 57 56 55 55 55 57 58 59 61 64 65 68 69 70 70 69 70 68 66 67 69 70 71 73 73
23 23 32 33 33 37 34 36 35 42 39 40 44 40 38 47 49 55 57 57 57 56 55 55 56 57 59 60 62 65 68 69 69 69 68 69 68 68 68 69 70 71 74 71
20 20 28 32 35 37 36 32 40 42 36 28 33 34 33 43 45 47 55 56 57 56 56 55 56 57 59 60 62 64 68 69 69 69 70 70 70 69 68 69 68 69 71 71
10 11 14 27 30 30 30 27 25 25 27 27 37 40 33 36 44 47 49 53 52 55 56 56 56 57 59 60 62 63 67 68 68 68 69 70 71 71 71 70 68 69 70 71
11 11 6 11 24 25 30 28 24 24 25 27 39 29 30 38 40 47 48 49 50 52 55 55 55 57 59 60 62 63 66 67 68 68 69 70 71 70 70 70 68 68 68 70
-1 8 -0 5 12 26 24 27 27 22 29 27 28 32 32 32 36 38 43 47 49 51 53 54 55 57 58 60 63 63 65 67 68 68 68 70 71 70 69 71 71 69 70 70
3 -2 -1 -1 6 10 22 26 24 23 19 22 25 24 24 29 30 43 46 45 48 51 55 55 55 56 59 60 62 63 64 66 67 68 68 69 70 71 72 72 71 70 70 70
-1 -2 -3 1 1 1 11 17 21 23 21 20 23 24 29 29 36 38 42 48 49 53 55 56 55 56 59 61 61 63 63 65 66 68 69 69 69 71 72 72 72 71 71 71
-1 -5 -4 -3 -3 -1 5 12 17 16 20 19 21 23 32 42 42 46 49 52 52 55 54 56 54 55 58 60 61 62 64 65 67 68 69 69 69 70 70 71 72 72 72 72
18 -3 -7 -7 -7 -0 0 6 13 14 17 18 18 19 38 48 51 55 56 58 56 56 56 56 55 56 59 61 62 63 64 65 66 68 68 68 68 68 68 69 71 72 72 72
30 12 -1 -10 -7 -5 -3 2 6 6 7 11 17 19 21 28 46 56 59 60 61 58 58 58 57 58 60 61 63 64 65 66 67 67 67 67 67 68 67 69 70 71 72 72
29 21 18 15 1 0 -2 -5 4 6 6 8 12 12 14 19 49 59 61 60 61 62 62 62 59 58 59 62 64 64 65 67 68 68 67 67 68 69 69 69 69 70 71 71
30 21 22 19 15 11 29 37 20 6 23 11 19 8 50 58 60 59 59 59 59 60 61 63 64 64 61 61 63 64 66 67 69 68 68 68 69 69 69 69 70 70 70 71
30 27 24 15 22 35 29 43 39 38 44 38 23 37 56 56 56 57 57 58 58 59 59 59 60 61 63 65 65 65 66 67 68 68 69 69 69 69 69 69 69 69 70 70
30 30 27 18 24 15 43 49 48 46 49 51 53 54 56 54 55 55 57 56 56 57 58 58 59 60 61 63 66 67 67 68 67 67 68 69 70 69 70 70 70 70 69 69
33 29 24 22 17 38 43 46 47 47 46 52 53 54 55 55 54 53 56 56 56 56 57 57 58 59 60 61 62 64 66 68 68 68 68 68 69 69 69 69 70 70 70 70
34 31 25 26 25 16 42 45 47 49 42 50 54 54 55 56 52 51 55 56 56 57 57 57 58 58 59 60 61 61 62 64 64 65 65 65 66 67 69 70 70 71 70 70
31 30 25 21 32 38 42 43 48 39 43 53 55 55 55 52 54 54 55 56 56 57 57 57 57 56 57 58 60 60 60 60 61 62 64 65 66 67 68 69 70 71 72 71
27 24 24 31 33 28 42 47 44 50 54 54 54 54 54 54 55 55 55 55 56 56 56 57 56 56 57 57 58 58 58 59 61 62 62 63 64 66 66 68 69 70 70 71
33 38 37 39 39 41 42 43 45 49 48 51 54 55 54 54 54 54 54 55 55 55 56 55 55 54 55 55 55 56 56 57 60 61 62 62 63 64 65 66 67 67 70 71
41 43 39 40 39 41 42 43 44 45 45 47 50 52 53 52 53 54 54 54 54 54 54 53 52 52 51 51 51 52 54 56 58 59 60 61 62 62 64 64 65 66 66 66
40 42 40 40 41 41 41 42 42 42 44 45 45 44 43 50 52 53 53 54 54 54 54 53 50 50 49 49 48 49 51 54 57 58 58 58 59 60 61 62 63 63 65 62
40 40 39 39 42 41 41 41 41 42 42 44 45 43 43 42 44 52 52 53 54 54 55 54 52 51 49 48 45 46 50 53 56 55 55 56 57 56 59 59 60 62 61 59
Wind_Speed
10 12 16 20 17 7 7 7 2 1 4 9 14 12 13 15 18 20 21 21 23 22 21 18 18 19 17 17 16 15 14 12 10 9 7 6 6 5 3 2 1 3 6 9
10 21 20 16 12 11 8 6 3 2 4 7 5 13 12 18 23 21 21 23 22 23 21 21 19 20 19 20 19 16 16 14 14 10 6 3 5 4 3 2 1 4 6 8
21 18 13 15 14 12 10 10 5 1 5 6 4 7 10 13 18 19 21 22 23 24 24 24 22 22 21 20 20 19 18 17 14 13 7 5 6 6 5 4 2 3 3 5
16 12 19 18 20 15 17 10 5 6 3 4 3 4 7 16 19 23 26 25 26 26 26 24 25 24 23 23 21 20 19 18 16 14 12 9 8 11 9 8 6 6 5 6
16 17 17 22 24 17 14 9 7 6 3 3 4 6 3 10 20 27 31 29 29 30 27 27 26 27 26 23 22 22 20 19 16 16 15 13 9 8 8 7 9 7 5 7
12 2 16 18 11 18 11 8 7 4 2 13 6 9 7 9 20 26 28 30 29 29 28 28 27 27 27 25 23 22 22 21 19 18 17 16 13 11 10 10 10 8 6 8
11 10 3 5 18 6 12 15 14 10 9 16 2 6 16 8 10 19 32 35 33 30 28 28 27 27 25 26 25 23 23 22 22 21 19 17 14 13 14 15 12 11 11 11
21 19 15 8 12 18 19 21 15 16 16 16 2 9 4 4 9 10 18 29 31 32 31 30 31 29 28 28 27 26 24 22 22 23 21 17 16 13 13 14 12 13 13 11
14 23 3 11 8 15 12 18 15 8 1 10 7 7 13 10 5 9 14 17 27 31 32 32 30 29 28 29 28 29 26 24 23 23 21 18 16 14 12 13 12 11 10 11
7 9 9 10 8 7 13 16 15 11 21 21 12 9 13 8 6 3 9 21 25 31 32 30 28 27 26 27 27 27 29 27 27 25 22 20 18 16 13 11 14 14 12 12
8 6 4 6 19 24 11 13 11 15 12 23 18 15 7 12 8 12 10 14 22 26 30 29 28 29 27 25 27 27 27 26 25 23 21 20 20 17 14 13 12 14 12 11
2 9 14 14 2 6 23 25 24 20 17 13 17 27 2 5 7 6 5 6 14 19 26 27 25 23 25 26 26 28 27 26 26 23 21 22 20 19 19 16 13 12 11 11
1 6 15 12 7 4 16 17 23 12 13 26 25 19 3 2 5 5 1 1 9 16 20 23 24 27 27 26 26 26 26 27 24 22 23 21 21 21 22 19 16 13 11 11
5 3 12 21 21 13 8 21 20 24 21 20 22 25 14 8 6 6 4 6 5 10 18 21 23 25 26 24 25 25 26 25 24 24 23 22 22 22 22 18 17 16 15 13
4 4 4 7 6 9 12 14 19 25 28 28 24 25 20 13 2 4 4 6 8 8 7 5 10 15 17 18 19 20 20 20 22 22 22 22 20 18 17 17 18 18 17 17
10 1 2 5 5 13 8 6 13 16 10 16 11 22 3 5 9 8 6 7 8 7 7 7 5 2 13 14 16 16 18 20 19 20 22 20 18 17 18 18 18 18 19 19
7 6 4 6 8 12 8 6 6 8 6 7 16 4 2 9 9 8 9 10 10 9 9 10 10 8 6 3 7 13 14 16 19 19 16 17 18 19 19 18 18 19 20 19
7 7 3 1 9 12 6 5 5 8 5 2 3 6 13 16 15 15 12 11 11 10 11 10 9 9 9 8 6 3 11 13 16 17 17 14 14 17 14 15 17 18 17 20
18 5 4 4 7 7 5 3 2 2 1 6 4 6 14 16 16 14 12 12 11 11 11 11 11 11 12 13 11 9 11 4 11 11 12 13 14 13 14 15 17 18 16 18
13 7 5 4 6 11 8 3 7 3 4 4 1 3 5 2 6 5 7 10 12 13 12 12 13 13 15 12 8 12 18 3 4 4 1 2 3 5 8 13 15 15 17 20
9 5 12 8 4 1 3 6 2 7 4 5 3 3 5 5 7 12 10 10 10 11 11 11 12 14 14 13 11 13 9 6 6 14 8 3 4 5 6 9 11 14 16 20
5 9 6 4 5 7 11 2 6 4 8 12 10 10 15 15 12 9 8 9 8 9 9 10 10 12 12 13 13 12 15 14 13 8 5 3 9 7 6 6 8 10 15 18
4 2 6 0 2 4 10 11 8 9 13 9 12 11 12 12 11 8 8 9 9 8 9 9 9 11 12 13 14 12 13 14 12 9 10 14 8 5 7 7 6 7 11 16
1 2 5 5 6 8 7 11 11 14 16 14 15 15 11 10 8 6 6 7 10 8 9 8 10 12 12 11 12 13 13 12 9 10 12 11 9 9 6 6 6 6 5 8
3 5 5 7 9 6 8 9 9 11 11 14 15 15 12 9 6 3 3 4 4 4 6 7 8 9 9 8 11 11 11 12 8 6 8 10 9 10 10 9 8 8 5 7
3 2 1 3 8 3 5 7 9 7 10 11 11 11 12 11 9 6 4 3 2 2 3 2 3 4 5 8 12 11 7 9 11 8 7 8 10 11 10 11 11 2 6 1
Wind_Direction
184 192 193 194 207 223 162 153 209 201 188 205 226 243 234 198 203 196 198 198 200 201 209 205 204 203 199 195 188 195 190 179 172 170 171 150 175 174 198 229 242 169 172 171
172 209 205 195 180 202 194 183 201 132 177 217 242 254 232 206 207 206 195 201 207 204 204 207 201 200 199 197 195 192 194 185 182 183 174 158 162 174 182 191 233 143 159 172
197 202 182 176 185 191 211 213 180 300 171 234 282 260 193 210 210 207 215 209 212 210 204 205 201 201 198 200 200 197 193 189 192 180 159 122 127 132 157 188 224 223 219 195
211 195 184 193 198 195 221 188 179 154 202 316 214 297 221 199 202 211 214 211 209 212 211 204 200 205 202 201 201 199 199 190 193 188 182 181 189 176 186 187 190 207 227 218
199 194 187 203 205 193 221 171 200 161 195 285 217 263 240 191 209 211 213 213 213 208 206 208 205 201 207 204 197 197 197 196 193 193 193 192 192 199 181 175 180 191 198 195
204 185 205 202 188 192 169 126 89 90 180 261 249 234 258 200 220 214 211 211 215 211 211 209 204 205 206 202 200 196 192 195 197 200 195 195 189 195 196 188 188 194 197 196
188 190 177 160 195 182 190 194 220 231 223 239 65 230 254 242 234 215 203 206 207 210 212 209 203 202 204 201 199 195 196 193 198 200 199 197 193 191 203 193 192 189 198 198
201 210 194 170 212 199 205 206 213 218 223 240 137 245 243 270 252 223 214 211 207 206 207 207 205 202 198 197 199 195 196 196 198 197 202 196 199 194 202 201 200 200 203 208
199 222 208 206 188 185 195 209 216 229 250 237 225 256 274 274 262 233 225 205 203 199 199 203 202 200 198 197 194 194 198 198 201 201 194 202 200 199 199 197 203 209 212 210
194 206 210 192 185 198 215 184 195 206 215 224 226 252 238 251 332 281 238 217 205 201 196 195 194 196 197 199 197 197 198 196 199 203 198 201 206 208 201 200 207 209 206 205
160 219 175 171 203 202 185 198 213 221 229 221 229 241 215 255 308 298 270 225 205 196 197 198 196 192 193 190 194 199 200 199 201 204 197 197 203 209 201 200 215 218 214 213
192 208 216 201 138 263 214 210 205 209 199 225 235 241 109 300 301 303 295 213 197 202 197 193 193 191 192 194 197 195 196 200 201 199 195 199 204 205 213 209 209 214 221 218
39 213 201 220 203 163 212 203 203 205 214 217 222 229 4 356 13 38 5 129 181 189 196 191 186 186 190 195 196 195 196 199 201 196 202 202 207 209 214 218 211 215 219 226
213 215 225 215 226 198 191 204 215 220 221 214 223 239 233 276 352 32 37 42 74 183 192 195 191 190 194 195 194 196 198 198 196 199 202 203 206 211 213 215 217 217 218 220
31 247 216 255 219 186 208 203 196 213 226 229 233 241 250 278 232 89 70 72 79 88 112 163 202 204 207 195 190 199 204 195 193 194 197 205 209 212 214 211 220 228 227 228
354 307 299 234 200 196 180 193 205 216 210 220 233 247 341 87 105 88 89 85 76 64 51 52 68 142 212 207 203 199 199 197 191 189 196 197 199 202 207 215 219 227 232 232
326 338 345 192 173 155 175 165 198 170 159 206 214 243 116 101 82 83 85 87 85 67 50 42 41 45 56 84 215 197 193 196 197 197 195 200 194 206 213 216 221 225 230 234
283 320 311 243 169 195 70 95 118 117 84 54 108 77 91 100 81 62 56 77 67 60 50 44 43 44 36 43 72 159 189 198 203 206 208 204 192 208 207 210 211 224 229 234
218 253 253 235 197 120 144 83 114 61 76 2 125 129 121 124 96 57 52 62 67 56 49 42 40 39 34 38 29 80 57 206 209 209 214 222 226 224 221 223 227 231 228 234
191 225 246 203 199 202 122 94 29 354 194 353 328 96 137 163 166 98 59 60 65 59 46 41 35 42 44 24 50 53 80 288 108 140 257 240 259 238 230 238 239 241 237 242
151 183 213 224 216 163 51 325 136 200 116 71 57 100 128 101 98 126 113 83 73 70 64 65 52 47 39 24 42 61 75 43 350 48 322 356 16 323 285 271 262 261 255 253
188 164 171 165 204 200 355 183 214 65 107 99 85 95 103 107 107 110 111 101 84 74 73 69 69 61 47 37 40 38 31 13 20 32 299 348 35 352 314 306 284 272 259 255
218 16 141 295 81 49 39 65 24 67 82 55 97 88 96 99 99 102 105 94 80 75 68 67 71 69 52 44 38 33 13 6 5 17 4 25 20 353 317 326 318 299 302 247
75 28 103 155 90 68 56 56 40 54 72 66 68 78 73 86 80 84 92 104 104 91 73 62 62 56 50 44 46 32 9 360 5 17 19 15 357 346 333 316 297 299 334 356
332 323 124 92 115 123 56 45 34 50 55 69 65 61 55 55 49 40 64 86 79 93 118 108 90 85 71 33 38 47 19 354 358 20 35 27 5 1 356 343 331 328 359 358
4 36 180 129 113 64 81 43 20 40 45 55 68 63 49 46 30 4 329 305 252 188 164 137 114 122 75 59 40 8 25 25 343 338 21 30 16 9 358 346 340 1 330 28